Weather History for St. Cloud, MN

Change the Weather History Date:

Friday, June 6, 2014

  Actual Average Record
Temperature  
Mean Temperature 70 °F 63 °F  
Max Temperature 83 °F 75 °F 97 °F (1987)
Min Temperature 56 °F 51 °F 34 °F (1897)
Degree Days  
Heating Degree Days 0 4  
Month to date heating degree days 0 28  
Since 1 June heating degree days 0 28  
Since 1 July heating degree days 9498 8482  
Cooling Degree Days 5 2  
Month to date cooling degree days 22 11  
Year to date cooling degree days 66 36  
Since 1 June cooling degree days 22 11  
Growing Degree Days 18 (Base 50)    
Moisture  
Dew Point 57 °F    
Average Humidity 68    
Maximum Humidity 93    
Minimum Humidity 43    
Precipitation  
Precipitation 0.00 in 0.12 in 1.70 in (1896)
Month to date precipitation 0.75 0.74  
Year to date precipitation 17.10 9.05  
Snow  
Snow 0.00 in 0.00 in 0.00 in ()
Month to date snowfall 0.0 0.0  
Since 1 June snowfall 0.0 0.0  
Since 1 July snowfall 75.5 45.7  
Snow Depth 0.00 in    
Sea Level Pressure  
Sea Level Pressure 29.92 in    
Wind  
Wind Speed 5 mph (NNW)    
Max Wind Speed 17 mph    
Max Gust Speed 23 mph    
Visibility 6 miles    
Events Fog    
T = Trace of Precipitation, MM = Missing Value Source: NWS Daily Summary

Daily Weather History Graph

Daily Weather History Graph

Search for Another Location

Airport:

Trip Planner

Search our weather history database for the weather conditions in past years. The results will help you decide how hot, cold, wet, or windy it might be!

Date:

Astronomy

Jun. 06, 2014 Rise Set
Actual Time 5:28 AM CDT 9:01 PM CDT
Civil Twilight 4:51 AM CDT 9:39 PM CDT
Nautical Twilight 4:01 AM CDT 10:29 PM CDT
Astronomical Twilight 2:56 AM CDT 11:34 PM CDT
Moon 2:03 PM CDT (6/6) 1:40 AM CDT (6/6)
Length of Visible Light 16h 48m
Length of Day
15h 33m
First Quarter, 58% of the Moon is Illuminated
Jun 6
First Quarter
Jun 12
Full
Jun 19
Last Quarter
Jun 27
New
Jul 5
First Quarter

Hourly Weather History & Observations

Time (CDT) Temp. Heat Index Dew Point Humidity Pressure Visibility Wind Dir Wind Speed Gust Speed Precip Events Conditions
12:53 AM 61.0 °F - 57.9 °F 90% 29.89 in 9.0 mi Calm Calm - N/A   Clear
1:53 AM 59.0 °F - 55.9 °F 90% 29.90 in 5.0 mi South 3.5 mph - N/A   Clear
2:53 AM 57.9 °F - 55.9 °F 93% 29.89 in 3.0 mi Calm Calm - N/A   Clear
3:01 AM 59.0 °F - 55.4 °F 88% 29.87 in 1.8 mi Calm Calm - N/A   Clear
3:20 AM 59.0 °F - 55.4 °F 88% 29.87 in 3.0 mi South 3.5 mph - N/A   Clear
3:32 AM 59.0 °F - 55.4 °F 88% 29.87 in 1.8 mi Calm Calm - N/A   Clear
3:42 AM 59.0 °F - 57.2 °F 94% 29.87 in 0.2 mi Calm Calm - N/A Fog Fog
3:53 AM 57.9 °F - 55.0 °F 90% 29.90 in 0.2 mi Calm Calm - N/A Fog Fog
4:05 AM 57.2 °F - 55.4 °F 94% 29.87 in 0.2 mi Calm Calm - N/A Fog Fog
4:40 AM 57.2 °F - 53.6 °F 88% 29.88 in 0.5 mi SSE 3.5 mph - N/A Fog Fog
4:53 AM 57.0 °F - 55.0 °F 93% 29.90 in 0.8 mi South 3.5 mph - N/A   Mist
5:06 AM 57.2 °F - 55.4 °F 94% 29.89 in 0.2 mi Calm Calm - N/A Fog Fog
5:48 AM 55.4 °F - 53.6 °F 94% 29.90 in 0.2 mi Calm Calm - N/A Fog Fog
5:53 AM 55.9 °F - 54.0 °F 93% 29.92 in 0.2 mi Calm Calm - N/A Fog Fog
6:46 AM 60.8 °F - 57.2 °F 88% 29.90 in 1.0 mi Calm Calm - N/A   Mist
6:53 AM 61.0 °F - 57.9 °F 90% 29.93 in 1.0 mi Calm Calm - N/A   Mist
7:02 AM 60.8 °F - 59.0 °F 94% 29.91 in 1.5 mi Calm Calm - N/A   Partly Cloudy
7:13 AM 60.8 °F - 59.0 °F 94% 29.91 in 2.0 mi Calm Calm - N/A   Clear
7:34 AM 62.6 °F - 60.8 °F 94% 29.91 in 3.0 mi Calm Calm - N/A   Clear
7:53 AM 64.0 °F - 61.0 °F 90% 29.93 in 5.0 mi Calm Calm - N/A   Clear
8:53 AM 71.1 °F - 63.0 °F 75% 29.94 in 10.0 mi Calm Calm - N/A   Clear
9:53 AM 75.2 °F - 62.6 °F 65% 29.92 in 10.0 mi North 5.8 mph - N/A   Clear
10:53 AM 77.0 °F - 64.0 °F 64% 29.94 in 10.0 mi NW 5.8 mph - N/A   Clear
11:53 AM 79.0 °F - 63.0 °F 58% 29.94 in 10.0 mi Variable 3.5 mph - N/A   Clear
12:53 PM 81.0 °F 81.7 °F 61.0 °F 50% 29.93 in 10.0 mi Calm Calm - N/A   Clear
1:53 PM 82.0 °F 82.7 °F 61.0 °F 49% 29.93 in 10.0 mi NW 9.2 mph - N/A   Partly Cloudy
2:53 PM 82.0 °F 82.0 °F 57.9 °F 44% 29.93 in 10.0 mi WNW 10.4 mph - N/A   Partly Cloudy
3:53 PM 80.6 °F 80.8 °F 57.2 °F 45% 29.92 in 10.0 mi North 6.9 mph - N/A   Clear
4:53 PM 80.1 °F 80.4 °F 57.0 °F 45% 29.93 in 10.0 mi NW 10.4 mph 17.3 mph N/A   Partly Cloudy
5:53 PM 79.0 °F - 55.9 °F 45% 29.94 in 10.0 mi NNW 12.7 mph - N/A   Mostly Cloudy
6:53 PM 75.0 °F - 51.1 °F 43% 29.97 in 10.0 mi NNW 10.4 mph - N/A   Mostly Cloudy
7:53 PM 72.0 °F - 52.0 °F 49% 29.98 in 10.0 mi North 9.2 mph - N/A   Mostly Cloudy
8:53 PM 70.0 °F - 53.1 °F 55% 29.97 in 10.0 mi NNE 3.5 mph - N/A   Partly Cloudy
9:53 PM 68.0 °F - 53.1 °F 59% 29.99 in 10.0 mi North 5.8 mph - N/A   Clear
10:53 PM 66.9 °F - 52.0 °F 59% 29.98 in 10.0 mi North 6.9 mph - N/A   Overcast
11:53 PM 66.0 °F - 51.1 °F 59% 29.99 in 10.0 mi North 6.9 mph - N/A   Overcast